HO-113
1 50466U 21131B   25355.88440103  .00000290  00000-0  10365-3 0  9996
2 50466  98.5056  84.2603 0003044 271.0282  89.0558 14.41122460209575
SNUGLITE 2
1 52899U 22065F   25355.34643543  .00001021  00000-0  20457-3 0  9995
2 52899  98.1933 135.8309 0006862 215.2483 144.8266 14.63858189184977
UmKA 1 (RS40S)
1 57172U 23091G   25355.83751932  .00005788  00000-0  28503-3 0  9994
2 57172  97.5326  50.2630 0014022  23.8009 336.3870 15.18280067137079
CubeBel-2 (EU11S)
1 57175U 23091K   25355.78114473  .00011630  00000-0  47852-3 0  9995
2 57175  97.5325  52.7756 0011408  27.0306 333.1522 15.24243548137235
RS-38S
1 57189U 23091Z   25355.86521896  .00014234  00000-0  49785-3 0  9990
2 57189  97.5351  57.3893 0007945 351.2147   8.8952 15.29614798137527
SONATE-2
1 59112U 24043Q   25355.65382125  .00024858  00000-0  51817-3 0  9995
2 59112  97.5337 132.2409 0009323 130.8452 229.3606 15.45519883100351
MO-122
1 60209U 24125G   25355.58818941  .00028428  00000-0  56594-3 0  9991
2 60209  97.2510 205.9697 0014834 145.8945 214.3261 15.46761472 81974
GRBBeta
1 60237U 24128C   25355.78850756  .00004038  00000-0  28973-3 0  9998
2 60237  61.9907 117.8979 0055959  98.3716 262.3726 15.04840240 79553
Curium One
1 60242U 24128H   25355.67528512  .00007963  00000-0  49609-3 0  9993
2 60242  61.9799 112.9582 0055585  95.0883 265.6558 15.09044934 79637
ROBUSTA-3A
1 60243U 24128J   25355.68270426  .00007187  00000-0  45772-3 0  9998
2 60243  61.9872 114.5057 0055820  92.5848 268.1637 15.08348122 79619
CatSat
1 60246U 24125J   25355.83155681  .00032750  00000-0  77386-3 0  9990
2 60246  97.2298 203.1217 0034404 112.0705 248.4202 15.41140984 79920
HYPERVIEW-1G (RS66S)
1 61772U 24199AP  25355.85608286  .00042455  00000-0  79508-3 0  9993
2 61772  97.3197 225.4094 0008492 196.6905 163.4067 15.48531321107026
AO-123
1 61781U 24199AY  25355.88199022  .00008562  00000-0  27778-3 0  9992
2 61781  97.3239 221.2328 0013235 219.0502 140.9786 15.32126455106748
ZIMSAT 2
1 61783U 24199BA  25355.37070692  .00235620  00000-0  14200-2 0  9991
2 61783  97.3058 228.7877 0005306 149.2329 210.9249 15.77002175110367
HADES-R (SO-124)
1 62690U 25009CK  25355.16817456  .00136522  00000-0  15706-2 0  9997
2 62690  97.3868  78.1308 0000895 260.0710 100.0446 15.61548570 52094
HYDRA-T
1 62692U 25009CM  25354.75145987  .00147353  00000-0  15577-2 0  9996
2 62692  97.3859  77.9240 0001870 290.6586  69.4472 15.63697383 52043
JINJUSat 1B
1 63210U 25052A   25355.63301676  .00013305  00000-0  50507-3 0  9990
2 63210  97.4204 247.7344 0004669  24.9391 335.2072 15.26949916 42947
NUSHSAT 1
1 63211U 25052B   25355.68757292  .00015734  00000-0  57706-3 0  9991
2 63211  97.4184 247.9228 0004833  27.7956 332.3540 15.28049916 42962
TEVEL2-4
1 63213U 25052D   25355.69242845  .00014628  00000-0  54815-3 0  9996
2 63213  97.4102 247.4608 0004559  43.9288 316.2313 15.27356889 42951
TEVEL2-5
1 63214U 25052E   25355.50177874  .00014168  00000-0  53238-3 0  9993
2 63214  97.4103 247.2577 0004565  45.0932 315.0677 15.27273572 42926
TEVEL2-6
1 63215U 25052F   25355.64039829  .00014669  00000-0  55179-3 0  9998
2 63215  97.4108 247.3833 0004638  43.5649 316.5955 15.27230257 42947
TEVEL2-1
1 63217U 25052H   25355.68499862  .00014053  00000-0  53406-3 0  9999
2 63217  97.4079 247.2310 0005117  52.8030 307.3675 15.26897275 42940
TEVEL2-3
1 63218U 25052J   25355.68406741  .00013900  00000-0  52794-3 0  9993
2 63218  97.4081 247.2363 0005090  52.8696 307.3007 15.26919889 42945
TEVEL2-2
1 63219U 25052K   25355.68575860  .00013726  00000-0  52172-3 0  9999
2 63219  97.4081 247.2325 0005018  52.8199 307.3498 15.26898148 42940
TEVEL2-9
1 63237U 25052AD  25355.65763424  .00013820  00000-0  54926-3 0  9995
2 63237  97.4139 246.8983 0009026  57.2009 303.0097 15.25383111 42903
TEVEL2-7
1 63238U 25052AE  25355.60683757  .00012957  00000-0  51764-3 0  9998
2 63238  97.4144 246.8202 0009142  57.6084 302.6037 15.25225334 42899
TEVEL2-8
1 63239U 25052AF  25354.95654772  .00010406  00000-0  41694-3 0  9999
2 63239  97.4144 246.1601 0009205  59.5314 300.6832 15.25181627 42799
HYDRA-W
1 63490U 25052BL  25355.65727231  .00061623  00000-0  14113-2 0  9999
2 63490  97.4064 249.5722 0011001  49.0223 311.1974 15.42505668 43092
HADES-ICM (SO-125)
1 63492U 25052BN  25354.62441311  .00044847  00000-0  11078-2 0  9995
2 63492  97.4076 248.2315 0011390  53.7849 306.4449 15.40297586 42917
Dragonfly
1 65729U 98067XH  25355.50347433  .00170588  00000-0  11144-2 0  9990
2 65729  51.6248  90.7906 0007643 331.3887  28.6692 15.74757439 14540
RSP-03
1 65732U 98067XL  25355.52451325  .00121759  00000-0  95100-3 0  9993
2 65732  51.6266  91.6927 0005725 306.8902  53.1571 15.70746693 14546
GHS-01
1 65733U 98067XM  25355.49998911  .00239293  00000-0  13106-2 0  9995
2 65733  51.6282  90.0237 0008816 335.2591  24.7986 15.78528465 14565
BOTAN
1 65942U 98067XP  25355.53709946  .00102689  00000-0  10329-2 0  9992
2 65942  51.6287  94.7896 0003037 312.4061  47.6677 15.64619472 11240
BEE-1000
1 66650U 25274A   25355.74117266  .00001318  00000-0  13647-3 0  9994
2 66650  97.7404 282.7639 0010842 218.0808 141.9645 14.91688991  3745
SPIRONE
1 66657U 25274H   25355.79522794  .00002053  00000-0  20534-3 0  9992
2 66657  97.7400 282.8455 0010872 241.7051 118.3071 14.92499903  3757
K-HERO
1 66660U 25274L   25355.78668324  .00001618  00000-0  16091-3 0  9994
2 66660  97.7407 282.8586 0012696 247.4732 112.5144 14.93004773  3753
SNUGLITE-III DURI
1 66661U 25274M   25355.71724537  .00001645  00000-0  16291-3 0  9999
2 66661  97.7404 282.7951 0013285 249.0325 110.9473 14.93139357  3740
SilverSat
1 66909U 98067XV  25355.67481419  .00063686  00000-0  10102-2 0  9995
2 66909  51.6311  97.9558 0003783 283.7129  76.3440 15.52760734  3002
CEVROSAT1
1 98526U 25248E   25313.13142326  .00000000  00000-0  19360-3 0    02
2 98526  45.4084 218.4764 0001315 254.8982 242.1062 15.17981583    02
